Temperature
10 10 10 10 9 8 8 8 8 7 5 4 4 4 3 3 2 2 1 1 1 1 1 1 1 1 1 0 -0 -1 -1 -2 -2 -3 -3 -3 -3 -3
10 9 9 8 8 7 7 7 6 6 4 4 3 3 2 2 1 1 0 0 0 0 0 0 -0 -0 -1 -1 -2 -2 -2 -3 -3 -3 -3 -3 -3 -3
9 9 8 7 6 6 5 5 5 4 4 3 2 2 1 0 0 -0 -0 -1 -1 -1 -1 -1 -1 -2 -2 -2 -3 -3 -3 -4 -4 -4 -4 -4 -4 -3
8 7 6 5 4 4 4 4 3 3 3 2 1 1 0 -0 -1 -1 -1 -1 -1 -1 -2 -2 -2 -2 -3 -3 -4 -4 -4 -4 -4 -4 -4 -4 -4 -4
6 5 4 3 3 3 3 2 2 2 1 1 0 -1 -1 -1 -2 -2 -2 -2 -2 -2 -2 -3 -3 -3 -3 -4 -4 -4 -4 -5 -4 -4 -4 -4 -4 -4
3 2 2 2 2 2 2 1 1 1 -0 -1 -2 -2 -3 -3 -3 -4 -4 -4 -4 -3 -3 -3 -3 -3 -4 -4 -4 -4 -4 -4 -4 -4 -4 -4 -4 -5
1 1 1 1 1 1 1 0 -0 -1 -2 -3 -3 -4 -4 -5 -5 -6 -6 -6 -5 -5 -4 -4 -4 -4 -4 -4 -4 -4 -4 -4 -4 -5 -5 -5 -5 -5
1 1 1 1 0 -0 -0 -1 -1 -2 -3 -4 -4 -5 -6 -6 -7 -7 -7 -7 -7 -6 -7 -6 -6 -5 -4 -4 -4 -4 -4 -5 -5 -5 -5 -5 -5 -5
0 0 -0 -1 -1 -1 -2 -2 -2 -3 -4 -5 -6 -6 -6 -7 -7 -7 -8 -8 -8 -7 -8 -7 -6 -6 -5 -4 -4 -4 -4 -5 -5 -5 -5 -5 -6 -6
-1 -1 -2 -2 -2 -2 -2 -3 -3 -4 -5 -6 -6 -7 -7 -7 -8 -8 -8 -8 -8 -7 -8 -8 -6 -6 -5 -5 -4 -4 -4 -4 -5 -5 -5 -5 -6 -6
-2 -2 -2 -3 -3 -3 -4 -4 -5 -6 -6 -6 -6 -7 -7 -7 -8 -8 -8 -8 -8 -7 -7 -8 -7 -7 -6 -5 -4 -4 -4 -4 -5 -5 -5 -5 -5 -6
-3 -3 -3 -4 -4 -5 -6 -6 -6 -6 -7 -6 -7 -7 -7 -7 -7 -8 -8 -8 -8 -8 -7 -8 -7 -8 -8 -5 -5 -5 -5 -4 -5 -5 -5 -5 -5 -6
-4 -4 -4 -5 -5 -6 -7 -7 -7 -7 -7 -7 -7 -7 -7 -7 -7 -7 -8 -8 -8 -8 -7 -8 -8 -8 -9 -8 -6 -5 -5 -5 -5 -5 -5 -5 -6 -6
-5 -5 -6 -6 -7 -7 -7 -7 -7 -7 -8 -7 -7 -7 -7 -7 -7 -7 -7 -7 -7 -7 -7 -7 -8 -8 -8 -9 -8 -6 -6 -6 -6 -5 -6 -6 -6 -6
-6 -7 -7 -7 -7 -7 -7 -7 -7 -8 -8 -8 -7 -7 -7 -7 -7 -7 -7 -7 -7 -6 -6 -7 -7 -7 -8 -9 -8 -7 -6 -5 -5 -6 -6 -6 -6 -7
-7 -7 -7 -7 -8 -8 -8 -8 -8 -8 -8 -8 -8 -8 -7 -7 -7 -7 -7 -7 -6 -6 -6 -6 -7 -7 -8 -8 -8 -7 -6 -7 -6 -7 -7 -7 -7 -7
-8 -8 -8 -8 -8 -8 -8 -8 -8 -8 -8 -8 -8 -8 -8 -7 -7 -7 -7 -7 -7 -6 -6 -6 -7 -8 -8 -8 -8 -7 -7 -7 -7 -8 -8 -8 -7 -7
-8 -8 -8 -9 -8 -8 -8 -8 -8 -8 -8 -8 -8 -8 -8 -8 -7 -7 -7 -7 -7 -7 -7 -7 -7 -8 -8 -8 -7 -7 -7 -8 -8 -8 -9 -9 -8 -7
-8 -9 -8 -8 -8 -8 -8 -8 -8 -8 -8 -8 -8 -8 -8 -8 -8 -8 -8 -8 -7 -7 -7 -7 -8 -9 -9 -9 -8 -8 -8 -8 -8 -8 -8 -8 -8 -7
-9 -9 -9 -9 -9 -8 -8 -8 -8 -8 -8 -8 -8 -8 -8 -8 -8 -8 -8 -8 -8 -8 -8 -8 -8 -8 -9 -9 -9 -7 -7 -8 -8 -8 -8 -8 -7 -7
-9 -9 -9 -9 -9 -9 -8 -8 -8 -8 -8 -8 -8 -8 -8 -8 -8 -8 -8 -8 -8 -8 -8 -8 -7 -8 -8 -9 -9 -8 -7 -7 -8 -8 -8 -8 -7 -7
-9 -9 -9 -9 -9 -8 -8 -8 -8 -8 -8 -8 -8 -8 -8 -8 -8 -8 -8 -8 -8 -8 -8 -8 -8 -8 -8 -8 -8 -8 -7 -7 -7 -7 -7 -7 -7 -7
-9 -9 -8 -8 -8 -8 -8 -8 -8 -8 -8 -8 -8 -8 -9 -8 -8 -8 -8 -8 -8 -8 -8 -8 -8 -8 -8 -8 -8 -8 -8 -7 -7 -7 -6 -6 -6 -6
Wind_Speed
9 8 6 5 4 3 4 3 6 5 4 4 3 4 5 6 5 7 9 10 14 17 19 20 20 21 22 23 24 24 25 25 25 25 26 26 26 27
7 10 8 7 6 5 6 5 4 4 3 3 2 3 4 5 7 9 11 13 16 17 18 20 21 22 23 24 24 25 25 25 26 26 27 27 27 28
10 11 11 10 8 7 6 6 6 4 3 2 2 2 3 6 8 9 11 12 13 17 19 21 22 23 23 24 24 24 25 25 25 26 27 27 28 29
12 13 12 10 10 8 7 6 5 4 3 3 3 4 6 6 8 9 11 12 14 17 20 22 22 23 23 23 23 24 24 25 26 27 28 29 29 30
12 13 12 12 10 7 7 6 5 4 2 2 3 4 5 6 8 9 10 11 13 15 18 20 21 21 21 22 23 24 25 26 27 28 28 29 30 30
11 11 10 10 9 8 6 6 4 4 3 4 5 5 6 7 7 8 9 9 10 13 16 18 19 20 22 24 25 26 27 27 27 27 28 29 29 30
11 10 9 9 9 7 5 5 5 4 4 4 5 6 7 6 7 7 10 10 11 11 10 10 12 14 18 21 23 24 25 26 26 27 28 29 29 30
11 9 8 7 7 7 6 6 6 5 5 5 6 7 8 8 7 8 10 11 10 6 10 12 12 15 16 18 22 24 26 27 28 28 28 29 29 30
9 8 6 5 5 3 2 3 5 6 7 7 9 9 9 8 9 11 11 12 13 12 13 16 14 15 15 19 24 26 27 28 28 28 28 28 28 28
7 6 6 4 3 2 2 3 4 5 6 7 8 9 9 9 10 11 12 13 14 13 13 14 14 14 14 17 22 25 27 27 27 27 27 27 27 27
6 4 3 2 1 3 3 4 5 6 6 9 11 13 15 16 14 10 10 10 12 12 10 9 11 13 14 14 17 21 22 24 26 27 27 27 27 27
4 3 1 1 2 4 4 5 6 7 7 8 9 10 11 12 12 10 9 9 8 7 6 6 9 9 8 9 10 12 16 20 24 26 26 26 25 18
2 1 0 2 4 5 5 5 7 9 9 8 9 9 8 7 7 8 8 8 10 9 8 6 8 8 8 8 10 12 13 13 14 16 20 23 23 19
1 1 2 4 5 6 5 7 9 9 7 7 8 8 7 7 7 7 10 12 14 15 16 13 9 10 11 13 12 12 12 13 14 14 13 17 19 21
2 3 4 4 5 5 5 7 7 6 6 7 7 7 7 8 8 9 10 11 14 18 20 19 15 13 13 13 13 15 15 14 14 12 11 12 12 13
2 2 3 4 5 6 6 5 4 5 6 7 8 8 8 8 8 8 9 9 9 11 11 15 15 15 14 16 16 17 16 11 11 13 14 14 14 13
3 3 4 4 4 4 4 4 4 5 6 6 7 8 8 8 8 7 7 8 8 10 12 9 10 12 15 16 16 17 17 16 15 14 14 15 15 14
4 4 4 4 4 5 5 5 5 5 5 6 7 7 8 8 9 9 8 9 11 12 12 12 11 11 11 12 17 18 16 15 14 14 14 15 17 15
4 4 5 5 5 5 5 6 6 6 6 6 7 8 8 8 9 9 9 10 11 12 12 12 11 11 14 15 10 12 14 15 16 15 15 15 17 16
4 5 5 5 5 6 6 6 7 7 7 7 8 8 8 8 9 10 10 11 12 13 13 12 11 11 13 16 16 16 16 16 15 16 16 15 16 19
5 5 5 6 6 6 7 7 8 8 8 8 8 9 8 9 10 10 11 15 14 13 14 14 13 16 14 13 14 15 14 14 16 16 16 16 17 16
6 6 6 7 7 7 7 7 8 8 9 9 9 9 9 9 11 12 12 12 12 13 16 15 15 14 12 14 17 19 20 17 15 19 23 22 14 10
6 7 7 7 7 7 7 8 10 9 9 9 9 9 9 10 11 11 12 13 13 15 16 15 14 13 14 14 16 17 20 20 16 15 14 15 21 27
Wind_Direction
198 182 164 146 134 123 124 143 155 164 171 157 167 176 190 210 230 271 283 288 295 297 297 297 296 295 293 291 289 288 287 285 284 282 281 280 279 278
164 158 145 135 121 111 106 92 90 122 143 155 163 153 190 231 257 275 282 288 288 289 291 292 292 291 289 287 285 284 283 282 282 281 280 280 279 278
155 150 141 135 125 114 105 99 94 99 137 150 177 193 227 251 266 273 279 284 285 286 288 291 290 288 286 285 283 282 281 281 280 280 280 280 280 279
150 142 138 132 122 119 113 111 115 115 142 177 199 211 237 257 273 279 283 283 283 286 289 290 288 287 286 284 282 281 280 280 281 281 280 280 279 278
140 138 135 130 124 124 123 127 130 136 152 192 231 232 249 262 276 281 282 283 285 286 288 288 288 287 285 283 282 282 282 281 280 279 279 278 277 276
119 122 124 126 131 134 134 138 143 156 184 218 244 255 261 268 273 284 290 292 292 293 289 287 286 286 284 282 282 281 280 280 279 278 276 275 274 273
106 104 106 117 131 136 141 153 166 187 210 232 249 260 265 272 278 289 292 298 296 293 290 289 290 287 286 283 280 277 277 277 277 277 276 275 274 272
107 102 105 111 129 138 153 177 196 215 229 241 255 263 274 282 290 291 294 297 299 296 296 294 293 289 286 283 281 281 281 280 280 279 278 277 275 274
104 110 115 122 120 131 160 212 232 247 253 261 267 273 283 289 292 290 287 286 285 289 295 290 289 286 285 282 282 282 283 283 282 281 279 277 275 273
105 116 124 131 142 178 213 234 248 252 260 266 272 279 283 285 282 281 286 287 285 283 280 282 286 286 288 285 284 283 282 283 283 282 281 279 278 277
114 120 125 137 187 252 253 259 272 273 264 270 279 282 284 284 284 284 281 281 285 288 285 278 285 293 291 286 282 280 279 280 282 283 282 282 280 279
124 125 116 317 287 285 281 278 284 293 297 291 285 282 281 279 275 264 263 266 274 285 278 273 287 303 298 283 283 286 285 283 282 281 280 280 280 278
114 92 22 315 307 308 302 291 294 298 296 293 291 288 284 276 269 261 255 251 257 260 269 282 280 280 272 286 292 288 284 284 286 284 283 281 279 274
12 333 322 313 314 314 304 300 298 295 287 285 284 285 287 288 286 280 270 259 253 257 267 270 267 270 275 282 286 288 288 289 287 285 283 281 278 273
325 323 320 320 311 299 295 297 295 282 278 278 280 285 288 288 288 284 276 267 263 261 261 257 253 259 261 267 273 283 292 293 287 279 278 278 278 277
289 281 293 298 286 286 290 282 274 276 280 280 285 288 290 286 281 282 287 294 291 284 261 247 246 250 259 264 270 277 280 279 280 283 283 282 278 272
295 280 283 287 286 286 283 279 276 270 270 275 282 286 287 287 287 288 285 287 281 289 295 286 262 253 254 262 270 270 273 275 275 280 283 284 281 275
283 281 287 291 296 300 298 295 290 281 281 283 281 280 284 287 289 289 283 281 282 285 289 294 296 293 284 266 243 259 268 274 280 282 282 283 284 280
281 283 287 290 290 290 289 289 288 287 285 279 277 279 280 281 283 286 286 285 283 285 288 290 290 289 292 297 280 238 260 280 286 286 282 279 282 284
280 283 284 285 286 286 287 286 287 288 282 279 278 277 275 276 279 281 282 283 286 290 290 288 283 280 282 290 292 289 267 268 278 283 286 285 282 282
285 281 281 282 282 283 283 282 281 281 281 280 277 275 273 272 275 278 281 283 285 286 287 287 284 284 283 283 283 284 284 264 259 272 282 286 288 289
284 282 282 281 281 281 281 280 280 279 279 276 275 275 274 271 273 277 280 282 283 283 285 286 288 287 283 283 285 291 295 294 282 265 261 260 269 278
285 285 284 283 279 277 276 276 277 278 278 277 276 276 275 274 274 276 278 279 281 284 287 291 293 291 288 285 287 289 292 297 300 298 285 262 252 255
Height
1477 1479 1481 1483 1486 1488 1490 1492 1495 1495 1496 1497 1499 1499 1500 1501 1499 1498 1497 1495 1494 1493 1491 1488 1486 1484 1482 1480 1478 1476 1474 1473 1472 1471 1470 1469 1469 1468
1469 1471 1473 1475 1477 1480 1482 1485 1487 1490 1491 1492 1493 1494 1494 1494 1493 1491 1489 1487 1485 1484 1482 1480 1477 1475 1473 1471 1469 1467 1466 1465 1463 1462 1462 1461 1461 1460
1461 1464 1466 1468 1471 1473 1476 1478 1481 1483 1485 1486 1487 1487 1488 1487 1486 1484 1482 1480 1477 1476 1474 1471 1468 1466 1464 1462 1460 1459 1457 1456 1455 1454 1453 1452 1452 1451
1455 1457 1460 1462 1465 1469 1471 1474 1476 1478 1480 1481 1481 1481 1481 1480 1479 1478 1475 1473 1471 1469 1466 1463 1461 1458 1456 1454 1452 1451 1449 1447 1446 1445 1444 1443 1442 1441
1450 1453 1455 1459 1462 1465 1468 1470 1472 1473 1475 1475 1475 1475 1475 1474 1472 1470 1468 1466 1463 1461 1458 1456 1453 1451 1448 1447 1445 1443 1441 1439 1437 1435 1434 1433 1432 1431
1447 1451 1455 1458 1461 1464 1465 1467 1468 1469 1469 1469 1469 1469 1469 1467 1465 1463 1461 1460 1457 1454 1452 1449 1446 1444 1442 1439 1437 1435 1432 1430 1428 1426 1424 1423 1422 1421
1447 1451 1455 1457 1460 1461 1462 1462 1463 1464 1464 1464 1464 1464 1463 1462 1460 1458 1456 1453 1450 1448 1445 1443 1440 1437 1434 1432 1429 1426 1424 1421 1419 1417 1415 1413 1412 1411
1448 1452 1454 1456 1457 1458 1458 1459 1460 1460 1460 1459 1459 1459 1458 1457 1455 1453 1451 1448 1445 1443 1440 1436 1434 1430 1427 1424 1421 1418 1415 1412 1410 1407 1405 1403 1402 1400
1449 1451 1453 1454 1454 1455 1455 1456 1456 1455 1455 1455 1454 1453 1452 1451 1450 1448 1446 1444 1441 1438 1435 1429 1427 1423 1420 1416 1414 1410 1407 1404 1401 1398 1395 1393 1391 1390
1449 1450 1451 1452 1452 1452 1452 1452 1452 1451 1450 1449 1449 1448 1447 1446 1444 1443 1441 1438 1435 1433 1430 1424 1420 1417 1413 1409 1406 1402 1399 1396 1392 1389 1386 1384 1381 1379
1449 1450 1450 1450 1450 1449 1449 1448 1448 1447 1446 1444 1443 1442 1441 1440 1439 1437 1435 1432 1428 1426 1425 1420 1415 1410 1405 1401 1398 1394 1390 1387 1384 1380 1377 1374 1371 1369
1449 1448 1448 1448 1447 1446 1446 1445 1444 1443 1442 1440 1439 1437 1436 1435 1433 1432 1430 1427 1424 1420 1418 1415 1409 1405 1396 1391 1389 1386 1382 1378 1374 1371 1367 1364 1361 1358
1447 1447 1446 1445 1444 1443 1442 1442 1440 1439 1437 1436 1434 1433 1432 1430 1428 1427 1425 1422 1419 1415 1413 1409 1403 1399 1394 1385 1380 1378 1374 1370 1365 1361 1358 1355 1352 1349
1446 1445 1444 1442 1441 1440 1439 1438 1436 1435 1434 1432 1431 1429 1428 1426 1424 1422 1420 1417 1414 1411 1408 1404 1398 1394 1388 1381 1374 1369 1367 1363 1358 1353 1349 1346 1343 1341
1444 1442 1441 1439 1438 1437 1436 1434 1433 1432 1430 1429 1427 1425 1424 1422 1419 1417 1414 1411 1408 1405 1402 1397 1392 1387 1382 1376 1368 1362 1358 1353 1350 1345 1341 1337 1333 1330
1441 1440 1438 1437 1435 1434 1432 1431 1429 1428 1427 1425 1423 1421 1419 1417 1414 1411 1408 1405 1400 1397 1394 1390 1385 1380 1374 1369 1363 1356 1351 1346 1341 1338 1332 1328 1324 1321
1439 1437 1436 1434 1433 1431 1429 1428 1426 1425 1423 1421 1419 1417 1414 1412 1409 1406 1403 1399 1394 1389 1385 1383 1378 1373 1367 1362 1355 1349 1344 1339 1334 1330 1325 1319 1315 1312
1437 1435 1433 1432 1430 1428 1427 1425 1424 1422 1420 1417 1415 1412 1409 1406 1403 1400 1397 1393 1388 1383 1378 1374 1370 1364 1359 1353 1349 1342 1337 1331 1327 1323 1318 1312 1305 1302
1434 1432 1430 1429 1427 1425 1424 1422 1420 1418 1416 1413 1410 1408 1404 1401 1398 1394 1391 1387 1382 1377 1372 1368 1363 1358 1352 1345 1339 1337 1331 1324 1319 1314 1310 1305 1298 1292
1430 1429 1427 1425 1424 1422 1420 1418 1416 1414 1411 1409 1406 1403 1399 1396 1392 1388 1385 1380 1375 1370 1365 1361 1358 1353 1348 1340 1331 1325 1323 1318 1312 1306 1301 1296 1289 1284
1427 1425 1424 1422 1420 1418 1416 1414 1411 1409 1406 1404 1400 1397 1394 1390 1386 1382 1378 1374 1369 1364 1358 1353 1350 1346 1340 1333 1325 1316 1313 1311 1306 1300 1294 1288 1281 1275
1423 1422 1420 1418 1416 1414 1411 1409 1406 1404 1401 1398 1395 1391 1388 1384 1380 1376 1372 1367 1362 1357 1351 1345 1341 1337 1332 1327 1319 1310 1303 1298 1295 1291 1286 1281 1277 1269
1420 1418 1416 1414 1412 1409 1407 1404 1401 1398 1395 1392 1388 1385 1381 1377 1373 1369 1365 1360 1355 1349 1344 1338 1333 1329 1324 1319 1312 1304 1297 1290 1284 1279 1274 1272 1268 1262